timestamp,waterbody_station,lease,latitude,longitude,deployment_start_date,deployment_end_date,sensor,depth,mooring,Temperature_degrees Celsius,Dissolved Oxygen_percent saturation
2022-03-30T00:00:00,Little Harbour-Melmerby Beach,,45.650204,-62.525184,2021-06-03,2022-06-19,HOBO-20291467,1.0,fixed,1.886,
2022-03-30T00:00:00,Merigomish Harbour-Olding Island,,45.644008,-62.468235,2021-06-24,2022-05-26,VR2AR-549339,5.0,fixed,0.0,
2022-03-30T00:15:00,Little Harbour-Melmerby Beach,,45.650204,-62.525184,2021-06-03,2022-06-19,HOBO-20291467,1.0,fixed,1.913,
2022-03-30T00:30:00,Little Harbour-Melmerby Beach,,45.650204,-62.525184,2021-06-03,2022-06-19,HOBO-20291467,1.0,fixed,1.913,
2022-03-30T00:45:00,Little Harbour-Melmerby Beach,,45.650204,-62.525184,2021-06-03,2022-06-19,HOBO-20291467,1.0,fixed,1.94,
2022-03-30T01:00:00,Merigomish Harbour-Olding Island,,45.644008,-62.468235,2021-06-24,2022-05-26,VR2AR-549339,5.0,fixed,0.0,
2022-03-30T01:00:00,Little Harbour-Melmerby Beach,,45.650204,-62.525184,2021-06-03,2022-06-19,HOBO-20291467,1.0,fixed,1.967,
2022-03-30T01:15:00,Little Harbour-Melmerby Beach,,45.650204,-62.525184,2021-06-03,2022-06-19,HOBO-20291467,1.0,fixed,1.94,
2022-03-30T01:30:00,Little Harbour-Melmerby Beach,,45.650204,-62.525184,2021-06-03,2022-06-19,HOBO-20291467,1.0,fixed,1.913,
2022-03-30T01:45:00,Little Harbour-Melmerby Beach,,45.650204,-62.525184,2021-06-03,2022-06-19,HOBO-20291467,1.0,fixed,1.886,
2022-03-30T02:00:00,Little Harbour-Melmerby Beach,,45.650204,-62.525184,2021-06-03,2022-06-19,HOBO-20291467,1.0,fixed,1.832,
2022-03-30T02:00:00,Merigomish Harbour-Olding Island,,45.644008,-62.468235,2021-06-24,2022-05-26,VR2AR-549339,5.0,fixed,0.0,
2022-03-30T02:15:00,Little Harbour-Melmerby Beach,,45.650204,-62.525184,2021-06-03,2022-06-19,HOBO-20291467,1.0,fixed,1.778,
2022-03-30T02:30:00,Little Harbour-Melmerby Beach,,45.650204,-62.525184,2021-06-03,2022-06-19,HOBO-20291467,1.0,fixed,1.697,
2022-03-30T02:45:00,Little Harbour-Melmerby Beach,,45.650204,-62.525184,2021-06-03,2022-06-19,HOBO-20291467,1.0,fixed,1.643,
2022-03-30T03:00:00,Little Harbour-Melmerby Beach,,45.650204,-62.525184,2021-06-03,2022-06-19,HOBO-20291467,1.0,fixed,1.588,
2022-03-30T03:00:00,Merigomish Harbour-Olding Island,,45.644008,-62.468235,2021-06-24,2022-05-26,VR2AR-549339,5.0,fixed,0.2,
2022-03-30T03:15:00,Little Harbour-Melmerby Beach,,45.650204,-62.525184,2021-06-03,2022-06-19,HOBO-20291467,1.0,fixed,1.561,
2022-03-30T03:30:00,Little Harbour-Melmerby Beach,,45.650204,-62.525184,2021-06-03,2022-06-19,HOBO-20291467,1.0,fixed,1.534,
2022-03-30T03:45:00,Little Harbour-Melmerby Beach,,45.650204,-62.525184,2021-06-03,2022-06-19,HOBO-20291467,1.0,fixed,1.507,
2022-03-30T04:00:00,Merigomish Harbour-Olding Island,,45.644008,-62.468235,2021-06-24,2022-05-26,VR2AR-549339,5.0,fixed,0.4,
2022-03-30T04:00:00,Little Harbour-Melmerby Beach,,45.650204,-62.525184,2021-06-03,2022-06-19,HOBO-20291467,1.0,fixed,1.588,
2022-03-30T04:15:00,Little Harbour-Melmerby Beach,,45.650204,-62.525184,2021-06-03,2022-06-19,HOBO-20291467,1.0,fixed,1.534,
2022-03-30T04:30:00,Little Harbour-Melmerby Beach,,45.650204,-62.525184,2021-06-03,2022-06-19,HOBO-20291467,1.0,fixed,1.48,
2022-03-30T04:45:00,Little Harbour-Melmerby Beach,,45.650204,-62.525184,2021-06-03,2022-06-19,HOBO-20291467,1.0,fixed,1.425,
2022-03-30T05:00:00,Little Harbour-Melmerby Beach,,45.650204,-62.525184,2021-06-03,2022-06-19,HOBO-20291467,1.0,fixed,1.371,
2022-03-30T05:00:00,Merigomish Harbour-Olding Island,,45.644008,-62.468235,2021-06-24,2022-05-26,VR2AR-549339,5.0,fixed,0.5,
2022-03-30T05:15:00,Little Harbour-Melmerby Beach,,45.650204,-62.525184,2021-06-03,2022-06-19,HOBO-20291467,1.0,fixed,1.317,
2022-03-30T05:30:00,Little Harbour-Melmerby Beach,,45.650204,-62.525184,2021-06-03,2022-06-19,HOBO-20291467,1.0,fixed,1.262,
2022-03-30T05:45:00,Little Harbour-Melmerby Beach,,45.650204,-62.525184,2021-06-03,2022-06-19,HOBO-20291467,1.0,fixed,1.208,
2022-03-30T06:00:00,Little Harbour-Melmerby Beach,,45.650204,-62.525184,2021-06-03,2022-06-19,HOBO-20291467,1.0,fixed,1.153,
2022-03-30T06:00:00,Merigomish Harbour-Olding Island,,45.644008,-62.468235,2021-06-24,2022-05-26,VR2AR-549339,5.0,fixed,0.6,
2022-03-30T06:15:00,Little Harbour-Melmerby Beach,,45.650204,-62.525184,2021-06-03,2022-06-19,HOBO-20291467,1.0,fixed,1.126,
2022-03-30T06:30:00,Little Harbour-Melmerby Beach,,45.650204,-62.525184,2021-06-03,2022-06-19,HOBO-20291467,1.0,fixed,1.071,
2022-03-30T06:45:00,Little Harbour-Melmerby Beach,,45.650204,-62.525184,2021-06-03,2022-06-19,HOBO-20291467,1.0,fixed,1.017,
2022-03-30T07:00:00,Little Harbour-Melmerby Beach,,45.650204,-62.525184,2021-06-03,2022-06-19,HOBO-20291467,1.0,fixed,0.962,
2022-03-30T07:00:00,Merigomish Harbour-Olding Island,,45.644008,-62.468235,2021-06-24,2022-05-26,VR2AR-549339,5.0,fixed,0.7,
2022-03-30T07:15:00,Little Harbour-Melmerby Beach,,45.650204,-62.525184,2021-06-03,2022-06-19,HOBO-20291467,1.0,fixed,0.88,
2022-03-30T07:30:00,Little Harbour-Melmerby Beach,,45.650204,-62.525184,2021-06-03,2022-06-19,HOBO-20291467,1.0,fixed,0.962,
2022-03-30T07:45:00,Little Harbour-Melmerby Beach,,45.650204,-62.525184,2021-06-03,2022-06-19,HOBO-20291467,1.0,fixed,1.017,
2022-03-30T08:00:00,Little Harbour-Melmerby Beach,,45.650204,-62.525184,2021-06-03,2022-06-19,HOBO-20291467,1.0,fixed,1.017,
2022-03-30T08:00:00,Merigomish Harbour-Olding Island,,45.644008,-62.468235,2021-06-24,2022-05-26,VR2AR-549339,5.0,fixed,0.7,
2022-03-30T08:15:00,Little Harbour-Melmerby Beach,,45.650204,-62.525184,2021-06-03,2022-06-19,HOBO-20291467,1.0,fixed,0.962,
2022-03-30T08:30:00,Little Harbour-Melmerby Beach,,45.650204,-62.525184,2021-06-03,2022-06-19,HOBO-20291467,1.0,fixed,0.962,
2022-03-30T08:45:00,Little Harbour-Melmerby Beach,,45.650204,-62.525184,2021-06-03,2022-06-19,HOBO-20291467,1.0,fixed,0.962,
2022-03-30T09:00:00,Merigomish Harbour-Olding Island,,45.644008,-62.468235,2021-06-24,2022-05-26,VR2AR-549339,5.0,fixed,0.0,
2022-03-30T09:00:00,Little Harbour-Melmerby Beach,,45.650204,-62.525184,2021-06-03,2022-06-19,HOBO-20291467,1.0,fixed,0.907,
2022-03-30T09:15:00,Little Harbour-Melmerby Beach,,45.650204,-62.525184,2021-06-03,2022-06-19,HOBO-20291467,1.0,fixed,0.934,
2022-03-30T09:30:00,Little Harbour-Melmerby Beach,,45.650204,-62.525184,2021-06-03,2022-06-19,HOBO-20291467,1.0,fixed,0.962,
2022-03-30T09:45:00,Little Harbour-Melmerby Beach,,45.650204,-62.525184,2021-06-03,2022-06-19,HOBO-20291467,1.0,fixed,0.825,
2022-03-30T10:00:00,Little Harbour-Melmerby Beach,,45.650204,-62.525184,2021-06-03,2022-06-19,HOBO-20291467,1.0,fixed,0.66,
2022-03-30T10:00:00,Merigomish Harbour-Olding Island,,45.644008,-62.468235,2021-06-24,2022-05-26,VR2AR-549339,5.0,fixed,-0.2,
2022-03-30T10:15:00,Little Harbour-Melmerby Beach,,45.650204,-62.525184,2021-06-03,2022-06-19,HOBO-20291467,1.0,fixed,0.495,
2022-03-30T10:30:00,Little Harbour-Melmerby Beach,,45.650204,-62.525184,2021-06-03,2022-06-19,HOBO-20291467,1.0,fixed,0.384,
2022-03-30T10:45:00,Little Harbour-Melmerby Beach,,45.650204,-62.525184,2021-06-03,2022-06-19,HOBO-20291467,1.0,fixed,0.329,
2022-03-30T11:00:00,Little Harbour-Melmerby Beach,,45.650204,-62.525184,2021-06-03,2022-06-19,HOBO-20291467,1.0,fixed,0.273,
2022-03-30T11:00:00,Merigomish Harbour-Olding Island,,45.644008,-62.468235,2021-06-24,2022-05-26,VR2AR-549339,5.0,fixed,-0.3,
2022-03-30T11:15:00,Little Harbour-Melmerby Beach,,45.650204,-62.525184,2021-06-03,2022-06-19,HOBO-20291467,1.0,fixed,0.218,
2022-03-30T11:30:00,Little Harbour-Melmerby Beach,,45.650204,-62.525184,2021-06-03,2022-06-19,HOBO-20291467,1.0,fixed,0.135,
2022-03-30T11:45:00,Little Harbour-Melmerby Beach,,45.650204,-62.525184,2021-06-03,2022-06-19,HOBO-20291467,1.0,fixed,0.218,
2022-03-30T12:00:00,Merigomish Harbour-Olding Island,,45.644008,-62.468235,2021-06-24,2022-05-26,VR2AR-549339,5.0,fixed,-0.4,
2022-03-30T12:00:00,Little Harbour-Melmerby Beach,,45.650204,-62.525184,2021-06-03,2022-06-19,HOBO-20291467,1.0,fixed,0.301,
2022-03-30T12:15:00,Little Harbour-Melmerby Beach,,45.650204,-62.525184,2021-06-03,2022-06-19,HOBO-20291467,1.0,fixed,0.356,
2022-03-30T12:30:00,Little Harbour-Melmerby Beach,,45.650204,-62.525184,2021-06-03,2022-06-19,HOBO-20291467,1.0,fixed,0.384,
2022-03-30T12:45:00,Little Harbour-Melmerby Beach,,45.650204,-62.525184,2021-06-03,2022-06-19,HOBO-20291467,1.0,fixed,0.439,
2022-03-30T13:00:00,Little Harbour-Melmerby Beach,,45.650204,-62.525184,2021-06-03,2022-06-19,HOBO-20291467,1.0,fixed,0.495,
2022-03-30T13:00:00,Merigomish Harbour-Olding Island,,45.644008,-62.468235,2021-06-24,2022-05-26,VR2AR-549339,5.0,fixed,-0.4,
2022-03-30T13:15:00,Little Harbour-Melmerby Beach,,45.650204,-62.525184,2021-06-03,2022-06-19,HOBO-20291467,1.0,fixed,0.522,
2022-03-30T13:30:00,Little Harbour-Melmerby Beach,,45.650204,-62.525184,2021-06-03,2022-06-19,HOBO-20291467,1.0,fixed,0.55,
2022-03-30T13:45:00,Little Harbour-Melmerby Beach,,45.650204,-62.525184,2021-06-03,2022-06-19,HOBO-20291467,1.0,fixed,0.577,
2022-03-30T14:00:00,Little Harbour-Melmerby Beach,,45.650204,-62.525184,2021-06-03,2022-06-19,HOBO-20291467,1.0,fixed,0.577,
2022-03-30T14:00:00,Merigomish Harbour-Olding Island,,45.644008,-62.468235,2021-06-24,2022-05-26,VR2AR-549339,5.0,fixed,-0.4,
2022-03-30T14:15:00,Little Harbour-Melmerby Beach,,45.650204,-62.525184,2021-06-03,2022-06-19,HOBO-20291467,1.0,fixed,0.605,
2022-03-30T14:30:00,Little Harbour-Melmerby Beach,,45.650204,-62.525184,2021-06-03,2022-06-19,HOBO-20291467,1.0,fixed,0.605,
2022-03-30T14:45:00,Little Harbour-Melmerby Beach,,45.650204,-62.525184,2021-06-03,2022-06-19,HOBO-20291467,1.0,fixed,0.632,
2022-03-30T15:00:00,Merigomish Harbour-Olding Island,,45.644008,-62.468235,2021-06-24,2022-05-26,VR2AR-549339,5.0,fixed,-0.3,
2022-03-30T15:00:00,Little Harbour-Melmerby Beach,,45.650204,-62.525184,2021-06-03,2022-06-19,HOBO-20291467,1.0,fixed,0.715,
2022-03-30T15:15:00,Little Harbour-Melmerby Beach,,45.650204,-62.525184,2021-06-03,2022-06-19,HOBO-20291467,1.0,fixed,0.742,
2022-03-30T15:30:00,Little Harbour-Melmerby Beach,,45.650204,-62.525184,2021-06-03,2022-06-19,HOBO-20291467,1.0,fixed,0.742,
2022-03-30T15:45:00,Little Harbour-Melmerby Beach,,45.650204,-62.525184,2021-06-03,2022-06-19,HOBO-20291467,1.0,fixed,0.77,
2022-03-30T16:00:00,Little Harbour-Melmerby Beach,,45.650204,-62.525184,2021-06-03,2022-06-19,HOBO-20291467,1.0,fixed,0.825,
2022-03-30T16:00:00,Merigomish Harbour-Olding Island,,45.644008,-62.468235,2021-06-24,2022-05-26,VR2AR-549339,5.0,fixed,0.0,
2022-03-30T16:15:00,Little Harbour-Melmerby Beach,,45.650204,-62.525184,2021-06-03,2022-06-19,HOBO-20291467,1.0,fixed,0.88,
2022-03-30T16:30:00,Little Harbour-Melmerby Beach,,45.650204,-62.525184,2021-06-03,2022-06-19,HOBO-20291467,1.0,fixed,0.907,
2022-03-30T16:45:00,Little Harbour-Melmerby Beach,,45.650204,-62.525184,2021-06-03,2022-06-19,HOBO-20291467,1.0,fixed,0.88,
2022-03-30T17:00:00,Merigomish Harbour-Olding Island,,45.644008,-62.468235,2021-06-24,2022-05-26,VR2AR-549339,5.0,fixed,0.3,
2022-03-30T17:00:00,Little Harbour-Melmerby Beach,,45.650204,-62.525184,2021-06-03,2022-06-19,HOBO-20291467,1.0,fixed,0.962,
2022-03-30T17:15:00,Little Harbour-Melmerby Beach,,45.650204,-62.525184,2021-06-03,2022-06-19,HOBO-20291467,1.0,fixed,1.099,
2022-03-30T17:30:00,Little Harbour-Melmerby Beach,,45.650204,-62.525184,2021-06-03,2022-06-19,HOBO-20291467,1.0,fixed,1.208,
2022-03-30T17:45:00,Little Harbour-Melmerby Beach,,45.650204,-62.525184,2021-06-03,2022-06-19,HOBO-20291467,1.0,fixed,1.317,
2022-03-30T18:00:00,Little Harbour-Melmerby Beach,,45.650204,-62.525184,2021-06-03,2022-06-19,HOBO-20291467,1.0,fixed,1.289,
2022-03-30T18:00:00,Merigomish Harbour-Olding Island,,45.644008,-62.468235,2021-06-24,2022-05-26,VR2AR-549339,5.0,fixed,0.4,
2022-03-30T18:15:00,Little Harbour-Melmerby Beach,,45.650204,-62.525184,2021-06-03,2022-06-19,HOBO-20291467,1.0,fixed,1.317,
2022-03-30T18:30:00,Little Harbour-Melmerby Beach,,45.650204,-62.525184,2021-06-03,2022-06-19,HOBO-20291467,1.0,fixed,1.208,
2022-03-30T18:45:00,Little Harbour-Melmerby Beach,,45.650204,-62.525184,2021-06-03,2022-06-19,HOBO-20291467,1.0,fixed,1.208,
2022-03-30T19:00:00,Little Harbour-Melmerby Beach,,45.650204,-62.525184,2021-06-03,2022-06-19,HOBO-20291467,1.0,fixed,1.208,
2022-03-30T19:00:00,Merigomish Harbour-Olding Island,,45.644008,-62.468235,2021-06-24,2022-05-26,VR2AR-549339,5.0,fixed,0.7,
2022-03-30T19:15:00,Little Harbour-Melmerby Beach,,45.650204,-62.525184,2021-06-03,2022-06-19,HOBO-20291467,1.0,fixed,1.235,
2022-03-30T19:30:00,Little Harbour-Melmerby Beach,,45.650204,-62.525184,2021-06-03,2022-06-19,HOBO-20291467,1.0,fixed,1.289,
2022-03-30T19:45:00,Little Harbour-Melmerby Beach,,45.650204,-62.525184,2021-06-03,2022-06-19,HOBO-20291467,1.0,fixed,1.398,
2022-03-30T20:00:00,Merigomish Harbour-Olding Island,,45.644008,-62.468235,2021-06-24,2022-05-26,VR2AR-549339,5.0,fixed,0.7,
2022-03-30T20:00:00,Little Harbour-Melmerby Beach,,45.650204,-62.525184,2021-06-03,2022-06-19,HOBO-20291467,1.0,fixed,1.48,
2022-03-30T20:15:00,Little Harbour-Melmerby Beach,,45.650204,-62.525184,2021-06-03,2022-06-19,HOBO-20291467,1.0,fixed,1.534,
2022-03-30T20:30:00,Little Harbour-Melmerby Beach,,45.650204,-62.525184,2021-06-03,2022-06-19,HOBO-20291467,1.0,fixed,1.561,
2022-03-30T20:45:00,Little Harbour-Melmerby Beach,,45.650204,-62.525184,2021-06-03,2022-06-19,HOBO-20291467,1.0,fixed,1.534,
2022-03-30T21:00:00,Little Harbour-Melmerby Beach,,45.650204,-62.525184,2021-06-03,2022-06-19,HOBO-20291467,1.0,fixed,1.561,
2022-03-30T21:00:00,Merigomish Harbour-Olding Island,,45.644008,-62.468235,2021-06-24,2022-05-26,VR2AR-549339,5.0,fixed,0.0,
2022-03-30T21:15:00,Little Harbour-Melmerby Beach,,45.650204,-62.525184,2021-06-03,2022-06-19,HOBO-20291467,1.0,fixed,1.561,
2022-03-30T21:30:00,Little Harbour-Melmerby Beach,,45.650204,-62.525184,2021-06-03,2022-06-19,HOBO-20291467,1.0,fixed,1.588,
2022-03-30T21:45:00,Little Harbour-Melmerby Beach,,45.650204,-62.525184,2021-06-03,2022-06-19,HOBO-20291467,1.0,fixed,1.615,
2022-03-30T22:00:00,Little Harbour-Melmerby Beach,,45.650204,-62.525184,2021-06-03,2022-06-19,HOBO-20291467,1.0,fixed,1.615,
2022-03-30T22:00:00,Merigomish Harbour-Olding Island,,45.644008,-62.468235,2021-06-24,2022-05-26,VR2AR-549339,5.0,fixed,-0.2,
2022-03-30T22:15:00,Little Harbour-Melmerby Beach,,45.650204,-62.525184,2021-06-03,2022-06-19,HOBO-20291467,1.0,fixed,1.561,
2022-03-30T22:30:00,Little Harbour-Melmerby Beach,,45.650204,-62.525184,2021-06-03,2022-06-19,HOBO-20291467,1.0,fixed,1.534,
2022-03-30T22:45:00,Little Harbour-Melmerby Beach,,45.650204,-62.525184,2021-06-03,2022-06-19,HOBO-20291467,1.0,fixed,1.48,
2022-03-30T23:00:00,Merigomish Harbour-Olding Island,,45.644008,-62.468235,2021-06-24,2022-05-26,VR2AR-549339,5.0,fixed,-0.3,
2022-03-30T23:00:00,Little Harbour-Melmerby Beach,,45.650204,-62.525184,2021-06-03,2022-06-19,HOBO-20291467,1.0,fixed,1.344,
2022-03-30T23:15:00,Little Harbour-Melmerby Beach,,45.650204,-62.525184,2021-06-03,2022-06-19,HOBO-20291467,1.0,fixed,1.235,
2022-03-30T23:30:00,Little Harbour-Melmerby Beach,,45.650204,-62.525184,2021-06-03,2022-06-19,HOBO-20291467,1.0,fixed,1.153,
2022-03-30T23:45:00,Little Harbour-Melmerby Beach,,45.650204,-62.525184,2021-06-03,2022-06-19,HOBO-20291467,1.0,fixed,1.044,
